This is the latest recevied weather packets stored in our database for station/object HS3UAA-1. If no packets are shown the sender has not sent any weather packets the latest 10 day(s).
| Time | Temp. | Humidity | Pressure | Rain* | Wind** | Luminosity | Snow |
|---|---|---|---|---|---|---|---|
| 1787481708 | 32.22° C | 43% | 995 hPa | - | - | 0 W/m² | - |
| 1787481386 | 32.22° C | 43% | 995 hPa | - | - | 0 W/m² | - |
| 1787481064 | 32.22° C | 43% | 995 hPa | - | - | 0 W/m² | - |
| 1787480568 | 31.67° C | 43% | 995 hPa | - | - | 0 W/m² | - |
| 1787480246 | 31.67° C | 43% | 995 hPa | - | - | 0 W/m² | - |
| 1787479924 | 30.56° C | 44% | 995 hPa | - | - | 0 W/m² | - |
| 1787479602 | 28.33° C | 48% | 995 hPa | - | - | 0 W/m² | - |
| 1787479280 | 28.33° C | 49% | 995 hPa | - | - | 0 W/m² | - |
| 1787478958 | 28.33° C | 50% | 995 hPa | - | - | 0 W/m² | - |
| 1787478636 | 28.33° C | 48% | 995 hPa | - | - | 0 W/m² | - |
| 1787478314 | 28.89° C | 50% | 995 hPa | - | - | 0 W/m² | - |
| 1787477992 | 28.33° C | 49% | 995 hPa | - | - | 0 W/m² | - |
| 1787477670 | 28.89° C | 46% | 995 hPa | - | - | 0 W/m² | - |
| 1787477348 | 28.89° C | 50% | 995 hPa | - | - | 0 W/m² | - |
| 1787477026 | 28.89° C | 46% | 995 hPa | - | - | 0 W/m² | - |
| 1787476704 | 28.89° C | 49% | 995 hPa | - | - | 0 W/m² | - |
| 1787476382 | 28.89° C | 50% | 995 hPa | - | - | 0 W/m² | - |
| 1787476060 | 28.89° C | 47% | 995 hPa | - | - | 0 W/m² | - |
| 1787475738 | 28.89° C | 48% | 995 hPa | - | - | 0 W/m² | - |
| 1787475416 | 28.89° C | 47% | 995 hPa | - | - | 0 W/m² | - |
| 1787475094 | 28.89° C | 44% | 996 hPa | - | - | 0 W/m² | - |
| 1787474772 | 29.44° C | 48% | 995 hPa | - | - | 0 W/m² | - |
| 1787474449 | 28.89° C | 46% | 996 hPa | - | - | 0 W/m² | - |
| 1787474128 | 28.89° C | 42% | 996 hPa | - | - | 0 W/m² | - |
| 1787473805 | 28.89° C | 42% | 996 hPa | - | - | 0 W/m² | - |
* Rain since midnight (hover to see other rain measurements)
** Current wind speed in m/s (hover to see current wind gust speed)